Regional Weather Roundup
Issued by NWS

Home | Current Version | Previous Version | Text Only | Print | Product List | Glossary Off
Versions: 1 2 3 4 5 6 7 8 9 10 11 12 13 14 15 16 17 18 19 20 21 22 23 24 25 26 27 28 29 30 31 32 33 34 35 36 37 38 39 40 41 42 43 44 45 46 47 48 49 50

763
ASUS45 KTFX 240610
RWRMT
MONTANA REGIONAL WEATHER ROUNDUP
NATIONAL WEATHER SERVICE GREAT FALLS MT
1100 PM MST FRI FEB 23 2018

NOTE: "FAIR" INDICATES FEW OR NO CLOUDS BELOW 12000 FEET WITH NO
SIGNIFICANT WEATHER AND/OR OBSTRUCTIONS TO VISIBILITY.

MTZ001>007-043-240700-
WEST OF THE DIVIDE

CITY           SKY/WX    TMP DP  RH WIND       PRES   REMARKS
KALISPELL      CLOUDY    19  14  81 S8        30.02F WCI   9
MISSOULA       CLOUDY    17  12  80 CALM      30.05F
BUTTE          MOCLDY     4  -2  76 NW5       29.87F
MULLAN PASS    LGT SNOW   7   4  87 SW8G20    29.85F FOG     WCI  -6
ANACONDA         N/A     18   3  53 S8        29.90F WCI   7
DEER LODGE       N/A      9   1  72 W6        29.93F WCI  -1
HAMILTON         N/A     21   5  49 MISG      30.03F
RONAN            N/A     18  16  93 SE9       30.06F WCI   6
$$

MTZ008-052>055-240700-
SOUTHWEST MONTANA

CITY           SKY/WX    TMP DP  RH WIND       PRES   REMARKS
BOZEMAN        CLOUDY    15   6  67 CALM      29.91F
DILLON         MOCLDY     8   3  80 SW16      29.91F WCI -10
ENNIS          CLOUDY    18   9  68 SE15      29.94F WCI   3
W YELLOWSTONE  CLOUDY     7   1  78 SW12G21   29.88F WCI  -9
THREE FORKS      N/A     13   6  73 CALM      29.90F
$$

MTZ009-010-012-014-046-048-049-054-240700-
EAST SLOPES AND CENTRAL MONTANA

CITY           SKY/WX    TMP DP  RH WIND       PRES   REMARKS
CUT BANK       CLOUDY    16   9  74 W35       29.69F HAZE    WCI  -5
GREAT FALLS    FAIR      15   5  64 SW21      29.77F WCI  -2
MALMSTROM AFB  FAIR      16   8  70 SW23      29.79F WCI  -2
HELENA         FAIR      20   4  50 SW8       29.92F WCI  10
AUGUSTA        LGT SNOW  15   9  76 W36G41    29.71F FOG     WCI  -7
BOWMANS CRNR   MOCLDY    13   6  74 SW24      29.75F WCI  -7
CHOTEAU          N/A     18   7  62 W22G31    29.71F WCI   0
FAIRFIELD      FAIR      17   6  64 SW21      29.74F WCI  -1
POWER          FAIR      13   5  71 SW23      29.74F WCI  -6
RAYNESFORD     FAIR      19   4  51 SW25G33   29.77F WCI   1
ULM            FAIR      16   6  64 SW17      29.81F WCI   0
WHITE SULPHUR    N/A     14   1  57 CALM      29.80F
$$

MTZ011-013-016-021-045-047-050-051-240700-
NORTH CENTRAL MONTANA

CITY           SKY/WX    TMP DP  RH WIND       PRES   REMARKS
HAVRE          FAIR      14   6  70 SW22      29.79F WCI  -4
LEWISTOWN      FAIR      12   4  70 W21       29.76F WCI  -7
N BAR RANCH    FAIR       7  -4  61 NW5       29.77F
CHINOOK          N/A      0  -6  78 E3        29.80F
GEYSER         FAIR      15   4  61 W21G28    29.74F WCI  -3
STANFORD       FAIR       9  -1  64 W10       29.73F WCI  -5
WINIFRED       FAIR      12   2  64 W8        29.76F WCI   0
$$

MTZ017>020-022>027-061-062-240700-
NORTHEAST MONTANA

CITY           SKY/WX    TMP DP  RH WIND       PRES   REMARKS
GLASGOW        FAIR      -3  -8  79 SE13      29.85F WCI -22
GLENDIVE       FAIR       2  -5  72 SW14      29.93F WCI -16
JORDAN           N/A      5  -2  72 W7        29.85F WCI  -7
MALTA          CLEAR    -17 -20  83 CALM      29.83F
SIDNEY         FAIR      -6 -10  83 S6        29.96F WCI -19
WOLF POINT     FAIR      -7 -12  79 CALM      29.92F
PLENTYWOOD       N/A      1  -4  78 SE12      29.88F WCI -15
POPLAR           N/A      3  -2  78 CALM      29.92F
$$

MTZ028>42-056>058-240700-
SOUTHCENTRAL AND SOUTHEAST MONTANA

CITY           SKY/WX    TMP DP  RH WIND       PRES   REMARKS
BAKER          FAIR       0  -6  76 SE10      29.91F WCI -16
BILLINGS       FAIR      15   5  64 SW17      29.85F WCI  -1
LIVINGSTON     CLOUDY    20   8  60 W17       29.84F WCI   5
MILES CITY     FAIR       1  -3  83 S3        29.91F
BIG TIMBER     CLOUDY    18   7  62 W25       29.81F WCI  -1
FORSYTH          N/A      1  -4  78 CALM      29.90F
HARLOWTON      FAIR      14   4  65 W22       29.79F WCI  -5
LAUREL           N/A      9   1  72 SW13      29.87  WCI  -7
$$

REGIONAL REPORTS...DAKOTAS

CITY           SKY/WX    TMP DP  RH WIND       PRES   REMARKS
WILLISTON      FAIR      -2  -4  91 SW5       29.96F
MINOT          FAIR      14   1  56 S8        29.97F WCI   3
DICKINSON      FAIR       4  -4  69 S13       29.94F WCI -13
BEACH          FAIR       5  -2  72 S12       29.95F WCI -11
CROSBY         FAIR       3  -2  78 S14       29.92F WCI -15
TIOGA          FAIR       5   1  85 S9        29.94F WCI  -9
WATFORD CITY   FAIR      -2  -6  84 SE5       29.95F
BISMARCK       FAIR       2  -1  88 E6        30.12F WCI  -9
GRAND FORKS    FAIR       4   0  83 S10       30.20F WCI -11
FARGO          FAIR       2  -1  88 S9        30.24F WCI -13
BUFFALO SD       N/A      3  -3  76 SE9       29.86  WCI -12
RAPID CITY     FAIR      14   4  64 S15       29.96F WCI  -1
$$

REGIONAL REPORTS...WYOMING/IDAHO/WASHINGTON

CITY           SKY/WX    TMP DP  RH WIND       PRES   REMARKS
GILLETTE       MOCLDY    17  10  74 S9        29.86F WCI   6
SHERIDAN       FAIR      -2  -7  79 CALM      29.85F
BUFFALO WY     FAIR      18  -1  43 W6        29.80F WCI  10
CODY           FAIR      20   0  41 CALM      29.84F
YELLOWSTONE LA   N/A     -9 -13  83 CALM      29.87F
IDAHO FALLS    FAIR      16   9  74 SW18      30.07S WCI   0
SALMON         CLOUDY    19  12  74 NW5       30.04F
BOISE          CLOUDY    24  14  65 SE5       30.22F
SPOKANE        LGT SNOW  22  21  96 S12       30.08F FOG     WCI  10
$$

REGIONAL REPORTS...ALBERTA

CITY           SKY/WX    TMP DP  RH WIND       PRES   REMARKS
CALGARY        CLOUDY    25   3  39 W20G30    29.59S WCI  11
CARDSTON         N/A     19   5  53 W20G28      N/A  WCI   4
EDMONTON       PTCLDY    28  12  50 W13       29.51S WCI  18
FORT MCMURRAY  LGT SNOW  25  23  93 W6        29.43S WCI  18
HIGH LEVEL     CLOUDY    18  16  93 N7        29.57R WCI   8
LETHBRIDGE     LGT SNOW  19  12  73 W41G49    29.66F VSB 1   WCI  -2
LLOYDMINSTER   CLOUDY    16  10  79 SW10      29.49F WCI   3
MEDICINE HAT   CLEAR     19  12  73 SW18      29.68F WCI   4
ONEFOUR          N/A      7   3  85 SW6         N/A  WCI  -3
PEACE RIVER    LGT SNOW  28  23  80 W14G24    29.44S WCI  17
PINCHER CREEK  LGT SNOW  16   7  67 W32G41    29.71S WCI  -5
$$

REGIONAL REPORTS...SASKATCHEWAN

CITY           SKY/WX    TMP DP  RH WIND       PRES   REMARKS
CORONACH         N/A     -2  -8  78 SE6         N/A  WCI -14
CYPRESS HILLS    N/A      9   5  85 SW6         N/A  WCI  -1
ESTEVAN        CLEAR      7   0  72 SW14      29.91F WCI -10
MOOSE JAW        N/A      9   0  66 S21G26      N/A  WCI -11
PRINCE ALBERT  MOCLDY    10   3  72 SW10      29.61F WCI  -3
REGINA         CLEAR      3  -4  72 S18       29.77F WCI -17
ROCKGLEN         N/A      5   0  78 SW20        N/A  WCI -15
SASKATOON      MOCLDY     9   1  72 S15       29.64F WCI  -8
VAL MARIE        N/A     -6 -11  77 S16         N/A  WCI -28
$$




USA.gov is the U.S. government's official web portal to all federal, state and local government web resources and services.